Location: Caltech
(34.1382°N, 118.1253°W)
Time: 10:23:10
(UTC-07:00)

Iridium 62 - Visible Passes

Search period start: 04 May 2016 00:00
Search period end: 14 May 2016 00:00
Orbit: 776 x 779 km, 86.4° (Epoch: 03 May)

Date Brightness Start Highest point End Pass type
(mag) Time Alt. Az. Time Alt. Az. Time Alt. Az.
04 May 8.3 00:48:30 10° NNW 00:49:47 17° NNW 00:49:47 17° NNW visible
05 May 8.0 00:14:35 10° N 00:16:27 23° NNW 00:16:27 23° NNW visible
05 May 7.8 23:41:04 10° N 23:43:08 24° N 23:43:08 24° N visible
06 May 7.8 23:07:57 10° NNE 23:09:48 20° NNE 23:09:48 20° NNE visible
07 May 8.3 00:49:06 10° NNW 00:50:17 15° NW 00:50:17 15° NW visible
07 May 8.1 22:35:30 10° NE 22:36:29 13° NE 22:36:29 13° NE visible
08 May 7.9 00:14:52 10° NNW 00:16:58 23° NNW 00:16:58 23° NNW visible
08 May 7.5 23:41:07 10° N 23:43:40 30° N 23:43:40 30° N visible
09 May 7.4 23:07:44 10° N 23:10:21 28° NNE 23:10:21 28° NNE visible
10 May 8.5 00:50:06 10° NW 00:50:50 12° NW 00:50:50 12° NW visible
10 May 7.7 22:34:50 10° NNE 22:37:04 20° NE 22:37:04 20° NE visible
11 May 7.9 00:15:19 10° NNW 00:17:32 21° NW 00:17:32 21° NW visible
11 May 8.1 22:02:54 10° NE 22:03:46 12° ENE 22:03:46 12° ENE visible
11 May 7.3 23:41:17 10° N 23:44:15 33° NNW 23:44:15 33° NNW visible
12 May 6.9 23:07:41 10° N 23:10:58 39° NNE 23:10:58 39° NNE visible
13 May 7.1 22:34:29 10° NNE 22:37:41 30° NE 22:37:41 30° NE visible
